Weather History for Joplin, MO

Change the Weather History Date:

Sunday, April 21, 2013

  Actual Average Record
Temperature  
Mean Temperature 60 °F 60 °F  
Max Temperature 69 °F 72 °F 90 °F (1963)
Min Temperature 50 °F 49 °F 30 °F (1966)
Degree Days  
Heating Degree Days 5 7  
Month to date heating degree days 241 193  
Since 1 July heating degree days 4014 3955  
Cooling Degree Days 0 2  
Month to date cooling degree days 14 26  
Year to date cooling degree days 15 36  
Growing Degree Days 10 (Base 50)    
Moisture  
Dew Point 37 °F    
Average Humidity 45    
Maximum Humidity 63    
Minimum Humidity 26    
Precipitation  
Precipitation 0.00 in 0.16 in 1.29 in (1996)
Month to date precipitation 3.62 2.86  
Year to date precipitation 11.47 10.63  
Snow  
Snow 0.00 in - - ()
Month to date snowfall T  
Snow Depth 0.00 in    
Sea Level Pressure  
Sea Level Pressure 30.18 in    
Wind  
Wind Speed 11 mph (SSE)    
Max Wind Speed 23 mph    
Max Gust Speed 30 mph    
Visibility 10 miles    
Events      
T = Trace of Precipitation, MM = Missing Value Source: NWS Daily Summary

Daily Weather History Graph

Daily Weather History Graph

Search for Another Location

Airport:

Trip Planner

Search our weather history database for the weather conditions in past years. The results will help you decide how hot, cold, wet, or windy it might be!

Date:

Astronomy

Apr. 21, 2013 Rise Set
Actual Time 6:35 AM CDT 7:58 PM CDT
Civil Twilight 6:07 AM CDT 8:25 PM CDT
Nautical Twilight 5:35 AM CDT 8:58 PM CDT
Astronomical Twilight 5:01 AM CDT 9:32 PM CDT
Moon 3:50 PM CDT (4/21) 3:51 AM CDT (4/21)
Length of Visible Light 14h 17m
Length of Day
13h 23m
Waxing Gibbous, 80% of the Moon is Illuminated
Apr 21
Waxing Gibbous
Apr 25
Full
May 2
Last Quarter
May 9
New
May 17
First Quarter

Hourly Weather History & Observations

Time (CDT) Temp. Dew Point Humidity Pressure Visibility Wind Dir Wind Speed Gust Speed Precip Events Conditions
12:53 AM 55.0 °F 37.0 °F 51% 30.16 in 10.0 mi SE 8.1 mph - N/A   Clear
1:53 AM 54.0 °F 37.0 °F 53% 30.17 in 10.0 mi SE 9.2 mph - N/A   Clear
2:53 AM 53.1 °F 37.0 °F 55% 30.17 in 10.0 mi SE 9.2 mph - N/A   Clear
3:53 AM 52.0 °F 37.9 °F 59% 30.18 in 10.0 mi SE 8.1 mph - N/A   Clear
4:53 AM 52.0 °F 39.0 °F 61% 30.19 in 10.0 mi SE 11.5 mph - N/A   Partly Cloudy
5:53 AM 53.1 °F 39.0 °F 59% 30.22 in 10.0 mi SE 6.9 mph - N/A   Overcast
6:53 AM 51.1 °F 39.9 °F 66% 30.23 in 10.0 mi ESE 9.2 mph - N/A   Clear
7:53 AM 52.0 °F 39.9 °F 63% 30.25 in 10.0 mi SE 6.9 mph - N/A   Partly Cloudy
8:53 AM 55.9 °F 39.9 °F 55% 30.25 in 10.0 mi SE 13.8 mph 17.3 mph N/A   Clear
9:53 AM 59.0 °F 41.0 °F 51% 30.24 in 10.0 mi SE 13.8 mph - N/A   Clear
10:53 AM 64.0 °F 39.0 °F 40% 30.23 in 10.0 mi SSE 23.0 mph 26.5 mph N/A   Clear
11:53 AM 64.9 °F 41.0 °F 42% 30.23 in 10.0 mi South 16.1 mph - N/A   Clear
12:53 PM 66.0 °F 37.9 °F 36% 30.20 in 10.0 mi South 17.3 mph 26.5 mph N/A   Scattered Clouds
1:53 PM 68.0 °F 37.9 °F 33% 30.18 in 10.0 mi South 12.7 mph 21.9 mph N/A   Partly Cloudy
2:53 PM 66.9 °F 36.0 °F 32% 30.16 in 10.0 mi SE 11.5 mph 20.7 mph N/A   Mostly Cloudy
3:53 PM 69.1 °F 37.9 °F 32% 30.13 in 10.0 mi South 13.8 mph 20.7 mph N/A   Overcast
4:53 PM 68.0 °F 35.1 °F 30% 30.12 in 10.0 mi SSE 11.5 mph 19.6 mph N/A   Clear
5:53 PM 68.0 °F 32.0 °F 26% 30.11 in 10.0 mi South 13.8 mph - N/A   Clear
6:53 PM 66.0 °F 34.0 °F 30% 30.12 in 10.0 mi South 10.4 mph - N/A   Partly Cloudy
7:53 PM 61.0 °F 35.1 °F 38% 30.14 in 10.0 mi South 4.6 mph - N/A   Mostly Cloudy
8:53 PM 57.9 °F 35.1 °F 42% 30.14 in 10.0 mi ESE 4.6 mph - N/A   Clear
9:53 PM 59.0 °F 36.0 °F 42% 30.16 in 10.0 mi SE 6.9 mph - N/A   Clear
10:53 PM 57.0 °F 37.0 °F 47% 30.16 in 10.0 mi SE 8.1 mph - N/A   Clear
11:53 PM 55.0 °F 37.0 °F 51% 30.16 in 10.0 mi SE 9.2 mph - N/A   Clear